TimeEST,TemperatureF,Dew PointF,Humidity,Sea Level PressureIn,VisibilityMPH,Wind Direction,Wind SpeedMPH,Gust SpeedMPH,PrecipitationIn,Events,Conditions,WindDirDegrees,DateUTC
12:53 AM,42.1,39.0,89,29.82,5.0,Calm,Calm,-,N/A,,Mostly Cloudy,0,2012-12-17 05:53:00
1:53 AM,42.1,39.9,92,29.83,5.0,Calm,Calm,-,N/A,,Scattered Clouds,0,2012-12-17 06:53:00
2:53 AM,41.0,39.0,93,29.83,4.0,Calm,Calm,-,N/A,,Scattered Clouds,0,2012-12-17 07:53:00
3:53 AM,39.9,39.0,97,29.83,3.0,Calm,Calm,-,N/A,,Overcast,0,2012-12-17 08:53:00
4:46 AM,39.2,37.4,93,29.81,3.0,Calm,Calm,-,N/A,,Mostly Cloudy,0,2012-12-17 09:46:00
4:53 AM,41.0,37.9,89,29.82,3.0,Calm,Calm,-,N/A,,Mostly Cloudy,0,2012-12-17 09:53:00
5:03 AM,39.2,37.4,93,29.81,2.0,Calm,Calm,-,N/A,,Overcast,0,2012-12-17 10:03:00
5:18 AM,39.2,37.4,93,29.81,1.8,Calm,Calm,-,N/A,,Overcast,0,2012-12-17 10:18:00
5:39 AM,39.2,37.4,93,29.81,0.8,Calm,Calm,-,N/A,,Overcast,0,2012-12-17 10:39:00
5:53 AM,39.0,37.0,93,29.82,2.0,Calm,Calm,-,N/A,,Mostly Cloudy,0,2012-12-17 10:53:00
6:09 AM,39.2,37.4,93,29.83,3.0,NW,4.6,-,N/A,,Mostly Cloudy,310,2012-12-17 11:09:00
6:31 AM,39.2,37.4,93,29.82,2.5,Calm,Calm,-,N/A,,Mostly Cloudy,0,2012-12-17 11:31:00
6:53 AM,37.0,36.0,96,29.83,1.8,Calm,Calm,-,N/A,,Partly Cloudy,0,2012-12-17 11:53:00
7:02 AM,37.4,35.6,93,29.82,0.8,Calm,Calm,-,N/A,,Mist,0,2012-12-17 12:02:00
7:38 AM,35.6,35.6,100,29.83,0.2,Calm,Calm,-,N/A,Fog,Fog,0,2012-12-17 12:38:00
7:53 AM,36.0,35.1,97,29.84,0.8,Calm,Calm,-,N/A,,Mist,0,2012-12-17 12:53:00
8:20 AM,39.2,37.4,93,29.84,1.2,Calm,Calm,-,N/A,,Overcast,0,2012-12-17 13:20:00
8:53 AM,42.1,39.9,92,29.85,1.8,Calm,Calm,-,N/A,,Overcast,0,2012-12-17 13:53:00
9:30 AM,42.8,41.0,93,29.85,2.0,Calm,Calm,-,N/A,,Overcast,0,2012-12-17 14:30:00
9:53 AM,44.1,41.0,89,29.85,2.5,Calm,Calm,-,N/A,,Overcast,0,2012-12-17 14:53:00
10:01 AM,44.6,41.0,87,29.84,2.5,Calm,Calm,-,N/A,,Overcast,0,2012-12-17 15:01:00
10:46 AM,44.6,41.0,87,29.84,3.0,Calm,Calm,-,N/A,,Overcast,0,2012-12-17 15:46:00
10:53 AM,45.0,42.1,90,29.84,3.0,Calm,Calm,-,N/A,,Overcast,0,2012-12-17 15:53:00
11:34 AM,46.4,42.8,87,29.82,3.0,Calm,Calm,-,N/A,,Overcast,0,2012-12-17 16:34:00
11:53 AM,46.0,42.1,86,29.82,3.0,South,3.5,-,N/A,,Overcast,170,2012-12-17 16:53:00
12:29 PM,46.4,42.8,87,29.77,4.0,Calm,Calm,-,N/A,,Overcast,0,2012-12-17 17:29:00
12:40 PM,46.4,42.8,87,29.77,4.0,Calm,Calm,-,N/A,,Haze,0,2012-12-17 17:40:00
12:53 PM,46.9,42.1,83,29.76,4.0,Variable,3.5,-,N/A,,Haze,0,2012-12-17 17:53:00
1:53 PM,48.0,43.0,83,29.75,5.0,SSE,3.5,-,N/A,,Haze,160,2012-12-17 18:53:00
2:53 PM,48.9,44.1,83,29.72,5.0,East,3.5,-,N/A,,Haze,80,2012-12-17 19:53:00
3:53 PM,48.9,45.0,86,29.70,4.0,ESE,5.8,-,N/A,,Overcast,120,2012-12-17 20:53:00
4:53 PM,48.0,45.0,89,29.68,4.0,SE,4.6,-,N/A,,Overcast,130,2012-12-17 21:53:00
7:43 PM,48.2,46.4,93,29.62,1.8,SE,3.5,-,N/A,,Overcast,140,2012-12-18 00:43:00
7:53 PM,48.0,46.9,96,29.61,1.5,SE,3.5,-,N/A,,Overcast,140,2012-12-18 00:53:00
8:31 PM,48.2,48.2,100,29.59,0.8,Calm,Calm,-,N/A,,Mist,0,2012-12-18 01:31:00
8:43 PM,48.2,46.4,93,29.59,1.0,WSW,3.5,-,0.00,Rain,Light Rain,240,2012-12-18 01:43:00
8:53 PM,48.9,48.0,97,29.59,0.8,Calm,Calm,-,0.00,,Mist,0,2012-12-18 01:53:00
9:53 PM,48.0,46.9,96,29.58,0.8,Calm,Calm,-,0.04,Rain,Light Rain,0,2012-12-18 02:53:00
9:59 PM,48.2,46.4,93,29.58,1.0,Calm,Calm,-,0.01,Rain,Rain,0,2012-12-18 02:59:00
10:25 PM,48.2,48.2,100,29.57,2.0,Calm,Calm,-,0.01,Rain,Light Rain,0,2012-12-18 03:25:00
10:34 PM,48.2,46.4,93,29.57,2.0,Calm,Calm,-,0.02,Rain,Light Rain,0,2012-12-18 03:34:00
10:41 PM,48.2,46.4,93,29.57,1.2,Calm,Calm,-,0.02,Rain,Light Rain,0,2012-12-18 03:41:00
10:53 PM,48.0,46.9,96,29.57,1.0,Calm,Calm,-,0.02,Rain,Light Rain,0,2012-12-18 03:53:00
11:00 PM,48.2,46.4,93,29.56,1.2,Calm,Calm,-,0.01,Rain,Light Rain,0,2012-12-18 04:00:00
11:07 PM,48.2,46.4,93,29.56,1.5,Calm,Calm,-,0.01,Rain,Light Rain,0,2012-12-18 04:07:00
11:29 PM,48.2,46.4,93,29.54,1.5,SE,3.5,-,0.02,Rain,Light Rain,130,2012-12-18 04:29:00
11:34 PM,48.2,46.4,93,29.54,2.0,Calm,Calm,-,0.02,Rain,Light Rain,0,2012-12-18 04:34:00
11:42 PM,48.2,46.4,93,29.54,1.8,Calm,Calm,-,0.02,Rain,Light Rain,0,2012-12-18 04:42:00
11:51 PM,48.2,46.4,93,29.54,1.0,Calm,Calm,-,0.02,Rain,Light Rain,0,2012-12-18 04:51:00
11:53 PM,48.0,46.9,96,29.54,1.0,Calm,Calm,-,0.02,Rain,Light Rain,0,2012-12-18 04:53:00